Location: Newark
(41.0400°S, 62.7845°W)
Time: 20:04:45
(UTC+00:00)

AO-109 - Visible Passes

Search period start: 24 January 2022 00:00
Search period end: 03 February 2022 00:00
Orbit: 479 x 515 km, 60.7° (Epoch: 24 January)

Date Brightness Start Highest point End Pass type
(mag) Time Alt. Az. Time Alt. Az. Time Alt. Az.
24 Jan ? 04:25:46 10° S 04:27:25 12° SSE 04:29:03 10° SE visible
24 Jan ? 06:01:49 10° SW 06:04:36 43° SSW 06:04:36 43° SSW visible
25 Jan ? 04:03:59 10° S 04:05:26 12° SSE 04:06:51 10° SE visible
25 Jan ? 05:39:52 10° SSW 05:41:55 29° SSW 05:41:55 29° SSW visible
26 Jan ? 03:42:14 10° SSE 03:43:25 11° SSE 03:44:37 10° SE visible
26 Jan ? 05:17:56 10° SSW 05:19:36 23° SSW 05:19:36 23° SSW visible
27 Jan ? 03:20:32 10° SSE 03:21:25 11° SSE 03:22:17 10° SE visible
27 Jan ? 04:55:59 10° SSW 04:57:29 21° SSW 04:57:29 21° SSW visible
28 Jan ? 02:59:05 10° SSE 02:59:23 10° SSE 02:59:42 10° SSE visible
28 Jan ? 04:34:02 10° SSW 04:35:31 21° SSW 04:35:31 21° SSW visible
29 Jan ? 04:12:05 10° SSW 04:13:39 22° SSW 04:13:39 22° SSW visible
30 Jan ? 03:50:07 10° SSW 03:51:50 23° SSW 03:51:50 23° SSW visible
31 Jan ? 03:28:09 10° SSW 03:30:06 25° S 03:30:06 25° S visible
01 Feb ? 03:06:10 10° SSW 03:08:25 28° S 03:08:25 28° S visible
02 Feb ? 02:44:11 10° SSW 02:46:47 30° S 02:46:47 30° S visible
